FW1302 Weather Reports


Display with metric or nautical units.
time (UTC)temp
F
wind
direction
speed
MPH
gust
MPH
rain 1hr
in
rain 24hr
in
rain mn
in
humidity
%
barometer
mb
20260905132810 54 67 1.0 1.0 0.00 0.00 0.00 94 1028.1
20260905131813 54 67 2.0 2.0 0.00 0.00 0.00 94 1028.1
20260905130909 54 67 2.0 2.0 0.00 0.00 0.00 93 1028.1
20260905125912 54 67 2.0 2.0 0.00 0.00 0.00 93 1028.1
20260905123913 54 67 0.0 0.0 0.00 0.00 0.00 94 1028.0
20260905121910 54 67 0.0 0.0 0.00 0.00 0.00 93 1028.2
20260905121810 54 67 0.0 0.0 0.00 0.00 0.00 92 1028.1
20260905120812 54 67 0.0 1.0 0.00 0.00 0.00 92 1028.0
20260905115813 54 67 1.0 2.0 0.00 0.00 0.00 93 1028.0
20260905112811 54 67 1.0 2.0 0.00 0.00 0.00 94 1027.8
20260905110909 54 67 1.0 1.0 0.00 0.00 0.00 95 1027.8
20260905104909 54 67 0.0 0.0 0.00 0.00 0.00 94 1027.7
20260905103912 54 67 0.0 0.0 0.00 0.00 0.00 94 1027.8
20260905103814 54 67 0.0 0.0 0.00 0.00 0.00 95 1027.8
20260905102911 54 67 0.0 0.0 0.00 0.00 0.00 95 1027.6
20260905102009 54 67 0.0 0.0 0.00 0.00 0.00 93 1027.7
20260905101010 54 67 0.0 0.0 0.00 0.00 0.00 93 1027.8
20260905100911 54 67 0.0 0.0 0.00 0.00 0.00 94 1027.8
20260905095910 54 67 0.0 1.0 0.00 0.00 0.00 93 1027.7
20260905094910 54 360 0.0 0.0 0.00 0.00 0.00 93 1027.8
20260905093910 54 360 0.0 0.0 0.00 0.00 0.00 93 1027.8
20260905092911 55 360 0.0 0.0 0.00 0.00 0.00 94 1027.7
20260905091911 55 360 0.0 0.0 0.00 0.00 0.00 93 1027.8
20260905091810 55 360 0.0 0.0 0.00 0.00 0.00 93 1027.9
20260905085811 55 360 0.0 0.0 0.00 0.00 0.00 94 1027.7
20260905084812 55 360 0.0 0.0 0.00 0.00 0.00 94 1027.7
20260905083811 55 360 0.0 0.0 0.00 0.00 0.00 93 1027.6
20260905083709 55 360 0.0 0.0 0.00 0.00 0.00 93 1027.6
20260905082711 55 315 0.0 0.0 0.00 0.00 0.00 93 1027.6
20260905081714 55 315 0.0 0.0 0.00 0.00 0.00 93 1027.5
20260905080712 55 315 0.0 0.0 0.00 0.00 0.00 94 1027.5
20260905075709 55 315 0.0 2.0 0.00 0.00 0.00 93 1027.5
20260905074710 55 315 0.0 0.0 0.00 0.00 0.00 93 1027.5
20260905072710 55 315 0.0 0.0 0.00 0.00 0.00 91 1027.3
20260905071710 56 315 0.0 0.0 0.00 0.00 0.00 92 1027.3
20260905070809 56 315 0.0 1.0 0.00 0.00 0.00 91 1027.2
20260905065822 56 315 0.0 1.0 0.00 0.00 0.00 91 1027.1
20260905063819 56 135 1.0 2.0 0.00 0.00 0.00 93 1027.0
20260905062820 56 143 3.0 3.0 0.00 0.00 0.00 93 1027.0
20260905060820 55 157 1.0 1.0 0.00 0.00 0.00 92 1026.9
20260905055919 56 157 0.0 0.0 0.00 0.00 0.00 93 1026.9
20260905055018 56 157 1.0 2.0 0.00 0.00 0.00 93 1026.8
20260905054020 56 157 3.0 3.0 0.00 0.00 0.00 91 1026.8
20260905053118 56 157 0.0 1.0 0.00 0.00 0.00 91 1026.7
20260905052119 56 157 0.0 0.0 0.00 0.00 0.00 90 1026.6
20260905050119 57 180 0.0 0.0 0.00 0.00 0.00 90 1026.7
20260905045119 57 180 0.0 1.0 0.00 0.00 0.00 91 1026.7
20260905044122 58 225 0.0 0.0 0.00 0.00 0.00 90 1026.6
20260905042220 58 270 0.0 1.0 0.00 0.00 0.00 88 1026.4
20260905041219 58 292 2.0 4.0 0.00 0.00 0.00 87 1026.2
20260905040219 58 225 2.0 2.0 0.00 0.00 0.00 87 1026.1
20260905035220 59 270 0.0 0.0 0.00 0.00 0.00 85 1026.2
20260905033335 60 270 3.0 4.0 0.00 0.00 0.00 84 1026.0
20260905031418 60 225 2.0 3.0 0.00 0.00 0.00 83 1025.8
20260905030420 60 225 3.0 5.0 0.00 0.00 0.00 83 1025.7
20260905025518 60 225 3.0 4.0 0.00 0.00 0.00 85 1025.7
20260905024520 60 225 4.0 5.0 0.00 0.00 0.00 86 1025.7
20260905023522 60 225 3.0 4.0 0.00 0.00 0.00 85 1025.8
20260905021522 60 270 1.0 2.0 0.00 0.00 0.00 85 1025.7
20260905020619 60 270 2.0 2.0 0.00 0.00 0.00 83 1025.6
20260905014720 63 270 5.0 6.0 0.00 0.00 0.00 74 1025.4
20260905013719 62 180 0.0 0.0 0.00 0.00 0.00 74 1025.3
20260905012819 61 225 2.0 3.0 0.00 0.00 0.00 74 1025.4
20260905011820 62 225 3.0 4.0 0.00 0.00 0.00 74 1025.1
20260905010819 62 225 4.0 5.0 0.00 0.00 0.00 74 1025.2
20260905005821 61 225 4.0 6.0 0.00 0.00 0.00 76 1025.2
20260905004822 61 235 5.0 8.0 0.00 0.00 0.00 79 1025.3
20260905003820 61 254 5.0 7.0 0.00 0.00 0.00 79 1025.2
20260905001820 61 225 4.0 5.0 0.00 0.00 0.00 75 1024.9
20260904235820 60 243 5.0 6.0 0.00 0.00 0.00 79 1024.9
20260904234820 60 241 4.0 6.0 0.00 0.00 0.00 77 1025.0
20260904233820 60 199 1.0 4.0 0.00 0.00 0.00 79 1025.0
20260904232818 60 206 5.0 8.0 0.00 0.00 0.00 80 1025.0
20260904231818 60 217 5.0 7.0 0.00 0.00 0.00 82 1024.9
20260904230820 60 191 3.0 8.0 0.00 0.00 0.00 85 1024.8
20260904225823 61 190 1.0 5.0 0.00 0.00 0.00 86 1024.9
20260904224820 61 218 2.0 5.0 0.00 0.00 0.00 86 1024.8
20260904223918 61 232 6.0 7.0 0.00 0.00 0.00 86 1024.8
20260904223821 61 236 5.0 6.0 0.00 0.00 0.00 86 1024.6
20260904222919 61 225 3.0 4.0 0.00 0.00 0.00 84 1024.6
20260904221921 61 204 2.0 3.0 0.00 0.00 0.00 83 1024.4
20260904220920 61 202 0.0 0.0 0.00 0.00 0.00 83 1024.2
20260904220822 61 202 0.0 2.0 0.00 0.00 0.00 83 1024.3
20260904215821 61 180 0.0 0.0 0.00 0.00 0.00 83 1024.2
20260904214818 61 201 3.0 4.0 0.00 0.00 0.00 86 1024.2
20260904213819 61 202 2.0 3.0 0.00 0.00 0.00 88 1024.3
20260904210918 60 225 4.0 5.0 0.00 0.00 0.00 87 1024.1
20260904203919 62 180 1.0 2.0 0.00 0.00 0.00 76 1023.9
20260904202921 63 225 3.0 4.0 0.00 0.00 0.00 73 1023.8
20260904201020 64 292 3.0 4.0 0.00 0.00 0.00 71 1024.0
20260904200021 63 45 0.0 0.0 0.00 0.00 0.00 71 1024.0
20260904194121 63 45 0.0 1.0 0.00 0.00 0.00 71 1024.1
20260904193219 63 45 4.0 5.0 0.00 0.00 0.00 71 1024.3
20260904192219 63 24 3.0 5.0 0.00 0.00 0.00 70 1024.3
20260904191220 62 45 2.0 3.0 0.00 0.00 0.00 73 1024.3
20260904190218 61 67 0.0 0.0 0.00 0.00 0.00 73 1024.4
20260904185221 61 45 0.0 1.0 0.00 0.00 0.00 72 1024.5
20260904184219 61 45 4.0 5.0 0.00 0.00 0.00 74 1024.4
20260904183218 61 45 4.0 5.0 0.00 0.00 0.00 75 1024.4
20260904182219 60 45 5.0 5.0 0.00 0.00 0.00 77 1024.4
20260904181247 60 45 5.0 6.0 0.00 0.00 0.00 77 1024.4
20260904180319 60 40 5.0 7.0 0.00 0.00 0.00 77 1024.3
20260904174420 59 45 4.0 6.0 0.00 0.00 0.00 80 1024.4
20260904173419 58 22 2.0 3.0 0.00 0.00 0.00 81 1024.4
20260904172419 58 45 4.0 4.0 0.00 0.00 0.00 82 1024.3
20260904171419 57 45 5.0 6.0 0.00 0.00 0.00 84 1024.4
20260904165421 57 45 6.0 9.0 0.00 0.00 0.00 85 1024.4
20260904164518 57 45 9.0 12.0 0.00 0.00 0.00 88 1024.3
20260904164420 57 40 7.0 10.0 0.00 0.00 0.00 89 1024.2
20260904163420 56 67 0.0 0.0 0.00 0.00 0.00 89 1024.4
20260904162518 56 67 2.0 5.0 0.00 0.00 0.00 90 1024.4
20260904161520 55 45 1.0 4.0 0.00 0.00 0.00 91 1024.6
20260904160619 55 112 0.0 0.0 0.00 0.00 0.00 91 1024.6
20260904155621 55 112 0.0 0.0 0.00 0.00 0.00 92 1024.5
20260904153719 54 67 1.0 2.0 0.00 0.00 0.00 92 1024.4
20260904152719 54 67 2.0 3.0 0.00 0.00 0.00 92 1024.4
20260904151818 54 45 0.0 0.0 0.00 0.00 0.00 92 1024.4
20260904150819 53 45 0.0 0.0 0.00 0.00 0.00 92 1024.2
20260904145819 53 45 1.0 3.0 0.00 0.00 0.00 93 1024.1
20260904143918 53 90 1.0 2.0 0.00 0.00 0.00 94 1024.1
20260904142922 53 90 3.0 3.0 0.00 0.00 0.00 93 1024.0
20260904142019 53 67 0.0 1.0 0.00 0.00 0.00 94 1023.8
20260904141021 53 45 2.0 3.0 0.00 0.00 0.00 94 1023.7
20260904140120 52 67 1.0 3.0 0.00 0.00 0.00 94 1023.6
20260904135122 52 67 0.0 0.0 0.00 0.00 0.00 94 1023.5
20260904135020 52 67 0.0 0.0 0.00 0.00 0.00 93 1023.5
20260904134021 52 67 1.0 2.0 0.00 0.00 0.00 93 1023.4